Ozark, AL

10:23 PM CDT on July 26, 2017 (GMT -0500)
Cairns Army Air Field

Weather History for KOZR - December, 2012

Change the Weather History Date:

Monday, December 24, 2012

  Actual Average Record
Temperature  
Mean Temperature 59 °F -  
Max Temperature 69 °F 58 °F 82 °F (2015)
Min Temperature 49 °F 36 °F 28 °F (2004)
Degree Days  
Heating Degree Days 6    
Growing Degree Days 9 (Base 50)    
Moisture  
Dew Point 58 °F    
Average Humidity 92    
Maximum Humidity 100    
Minimum Humidity 75    
Precipitation  
Precipitation 0.63 in - - ()
Sea Level Pressure  
Sea Level Pressure 29.93 in    
Wind  
Wind Speed 7 mph (South)    
Max Wind Speed 18 mph    
Max Gust Speed 23 mph    
Visibility 5 miles    
Events Fog , Rain , Thunderstorm    
Averages and records for this station are not official NWS values.
T = Trace of Precipitation, MM = Missing Value Source: NWS Daily Summary

Daily Weather History Graph

Daily Weather History Graph

Search for Another Location

Airport or City:

Trip Planner

Search our weather history database for the weather conditions in past years. The results will help you decide how hot, cold, wet, or windy it might be!

Date:

Astronomy

Dec. 24, 2012 Rise Set
Actual Time 6:39 AM CST 4:46 PM CST
Civil Twilight 6:12 AM CST 5:13 PM CST
Nautical Twilight 5:42 AM CST 5:43 PM CST
Astronomical Twilight 5:12 AM CST 6:13 PM CST
Moon 2:09 PM CST (12/24) 3:22 AM CST (12/24)
Length of Visible Light 11h 00m
Length of Day
10h 07m
Waxing Gibbous, 88% of the Moon is Illuminated
Dec 24
Waxing Gibbous
Dec 28
Full
Jan 4
Last Quarter
Jan 11
New
Jan 18
First Quarter

Hourly Weather History & Observations

Time (CST) Temp. Dew Point Humidity Pressure Visibility Wind Dir Wind Speed Gust Speed Precip Events Conditions
12:55 AM 49.3 °F 41.5 °F 75% 30.06 in 10.0 mi SSE 5.8 mph - N/A   Overcast
1:55 AM 50.2 °F 43.3 °F 77% 30.04 in 10.0 mi SSE 5.8 mph - N/A   Overcast
2:55 AM 50.7 °F 44.8 °F 80% 30.02 in 10.0 mi SSE 5.8 mph - N/A   Mostly Cloudy
3:55 AM 50.0 °F 45.3 °F 84% 29.99 in 5.0 mi SSE 5.8 mph - N/A   Haze
4:23 AM 50.0 °F 46.4 °F 87% 29.99 in 2.5 mi SE 4.6 mph - N/A   Haze
4:42 AM 50.0 °F 46.4 °F 87% 29.98 in 3.0 mi SE 4.6 mph - N/A   Haze
4:45 AM 50.0 °F 46.4 °F 87% 29.98 in 2.5 mi SE 3.5 mph - N/A   Haze
4:54 AM 50.0 °F 46.4 °F 87% 29.99 in 3.0 mi Calm Calm - N/A   Overcast
4:55 AM 50.2 °F 46.2 °F 86% 29.99 in 3.0 mi Calm Calm - N/A   Overcast
5:08 AM 50.0 °F 46.4 °F 87% 29.98 in 2.5 mi SSE 4.6 mph - N/A   Overcast
5:18 AM 51.8 °F 46.4 °F 82% 29.98 in 3.0 mi SSE 4.6 mph - N/A   Overcast
5:45 AM 51.8 °F 48.2 °F 88% 29.97 in 2.5 mi SE 5.8 mph - N/A   Overcast
5:55 AM 51.8 °F 48.0 °F 87% 29.97 in 2.5 mi SSE 4.6 mph - N/A   Overcast
6:06 AM 51.8 °F 48.2 °F 88% 29.98 in 3.0 mi SE 4.6 mph - N/A   Overcast
6:41 AM 51.8 °F 48.2 °F 88% 29.97 in 2.5 mi SE 4.6 mph - N/A   Mostly Cloudy
6:55 AM 52.3 °F 49.3 °F 89% 29.96 in 2.5 mi SSE 5.8 mph - N/A   Mostly Cloudy
6:58 AM 51.8 °F 50.0 °F 94% 29.96 in 3.0 mi SSE 5.8 mph - N/A   Mostly Cloudy
7:55 AM 54.5 °F 51.3 °F 89% 29.96 in 6.0 mi SSE 5.8 mph - N/A   Mostly Cloudy
8:52 AM 60.8 °F 55.4 °F 82% 29.96 in 10.0 mi South 9.2 mph - N/A   Overcast
8:53 AM 60.8 °F 55.4 °F 82% 29.96 in 10.0 mi South 9.2 mph - N/A   Overcast
8:54 AM 60.8 °F 55.4 °F 82% 29.96 in 10.0 mi South 9.2 mph - N/A   Overcast
8:55 AM 60.3 °F 55.8 °F 85% 29.96 in 10.0 mi South 9.2 mph - N/A   Overcast
9:10 AM 60.8 °F 57.2 °F 88% 29.96 in 10.0 mi South 10.4 mph - N/A   Overcast
9:11 AM 60.8 °F 57.2 °F 88% 29.96 in 10.0 mi South 10.4 mph - N/A   Overcast
9:31 AM 62.6 °F 57.2 °F 82% 29.96 in 10.0 mi South 12.7 mph - N/A Rain Light Rain
9:37 AM 60.8 °F 57.2 °F 88% 29.96 in 5.0 mi South 11.5 mph - N/A Rain Light Rain
9:38 AM 60.8 °F 57.2 °F 88% 29.96 in 5.0 mi South 12.7 mph - N/A Rain Light Rain
9:53 AM 60.8 °F 59.0 °F 94% 29.96 in 10.0 mi SSW 15.0 mph - N/A   Overcast
9:55 AM 61.7 °F 59.4 °F 92% 29.95 in 10.0 mi South 13.8 mph - 0.02 in   Overcast
10:14 AM 62.6 °F 59.0 °F 88% 29.95 in 10.0 mi SSW 15.0 mph 23.0 mph N/A   Overcast
10:55 AM 63.3 °F 60.1 °F 89% 29.92 in 10.0 mi SSW 18.4 mph - N/A   Overcast
11:14 AM 62.6 °F 60.8 °F 94% 29.91 in 10.0 mi SSW 16.1 mph 23.0 mph N/A Rain Light Rain
11:46 AM 62.6 °F 60.8 °F 94% 29.91 in 3.0 mi South 10.4 mph - N/A Rain Light Rain
11:48 AM 62.6 °F 60.8 °F 94% 29.90 in 2.5 mi South 11.5 mph - N/A Rain Light Rain
11:50 AM 62.6 °F 60.8 °F 94% 29.89 in 2.5 mi South 9.2 mph - N/A Rain Heavy Rain
11:52 AM 62.6 °F 60.8 °F 94% 29.89 in 2.0 mi South 10.4 mph - N/A Rain Rain
11:55 AM 61.9 °F 60.6 °F 96% 29.88 in 1.8 mi SSE 9.2 mph - 0.22 in Rain Heavy Rain
11:56 AM 62.6 °F 60.8 °F 94% 29.88 in 1.8 mi SSE 10.4 mph - N/A Rain Heavy Rain
11:58 AM 62.6 °F 60.8 °F 94% 29.88 in 2.0 mi SSE 9.2 mph - N/A Rain Heavy Rain
12:00 PM 62.6 °F 60.8 °F 94% 29.88 in 1.8 mi SSE 8.1 mph - N/A Rain Heavy Rain
12:02 PM 62.6 °F 60.8 °F 94% 29.88 in 1.5 mi SSE 9.2 mph - N/A Rain , Thunderstorm Heavy Thunderstorms and Rain
12:06 PM 62.6 °F 60.8 °F 94% 29.88 in 1.5 mi South 8.1 mph - N/A Rain , Thunderstorm Heavy Thunderstorms and Rain
12:08 PM 62.6 °F 60.8 °F 94% 29.90 in 1.2 mi South 9.2 mph - N/A Rain , Thunderstorm Heavy Thunderstorms and Rain
12:10 PM 62.6 °F 60.8 °F 94% 29.91 in 1.0 mi WSW 12.7 mph - N/A Rain , Thunderstorm Heavy Thunderstorms and Rain
12:11 PM 62.6 °F 60.8 °F 94% 29.91 in 0.8 mi WSW 13.8 mph - N/A Rain , Thunderstorm Heavy Thunderstorms and Rain
12:13 PM 62.6 °F 60.8 °F 94% 29.91 in 0.5 mi West 10.4 mph - N/A Fog , Rain , Thunderstorm Heavy Thunderstorms and Rain
12:17 PM 62.6 °F 60.8 °F 94% 29.91 in 0.5 mi WNW 13.8 mph - N/A Fog , Rain Light Rain
12:20 PM 62.6 °F 60.8 °F 94% 29.90 in 0.8 mi West 6.9 mph - N/A Rain Light Rain
12:22 PM 62.6 °F 60.8 °F 94% 29.90 in 1.0 mi West 6.9 mph - N/A Rain Light Rain
12:23 PM 62.6 °F 60.8 °F 94% 29.90 in 2.0 mi West 5.8 mph - N/A Rain Light Rain
12:24 PM 62.6 °F 60.8 °F 94% 29.90 in 4.0 mi West 5.8 mph - N/A Rain Light Rain
12:28 PM 62.6 °F 62.6 °F 100% 29.90 in 10.0 mi SW 3.5 mph - N/A   Mostly Cloudy
12:31 PM 62.6 °F 62.6 °F 100% 29.89 in 10.0 mi WSW 3.5 mph - N/A   Mostly Cloudy
12:33 PM 62.6 °F 62.6 °F 100% 29.89 in 10.0 mi WSW 3.5 mph - N/A   Mostly Cloudy
12:44 PM 64.4 °F 62.6 °F 94% 29.89 in 10.0 mi Calm Calm - N/A   Mostly Cloudy
12:55 PM 64.4 °F 62.1 °F 92% 29.89 in 10.0 mi Calm Calm - 0.39 in   Mostly Cloudy
1:12 PM 64.4 °F 62.6 °F 94% 29.89 in 10.0 mi South 4.6 mph - N/A   Overcast
1:14 PM 64.4 °F 62.6 °F 94% 29.89 in 10.0 mi SSE 4.6 mph - N/A   Overcast
1:35 PM 68.0 °F 64.4 °F 88% 29.88 in 10.0 mi SSW 8.1 mph - N/A   Scattered Clouds
1:55 PM 68.5 °F 63.7 °F 84% 29.88 in 10.0 mi SSW 10.4 mph - N/A   Scattered Clouds
2:30 PM 69.8 °F 64.4 °F 83% 29.87 in 10.0 mi SW 13.8 mph - N/A   Mostly Cloudy
2:50 PM 69.8 °F 62.6 °F 78% 29.87 in 10.0 mi SSW 15.0 mph - N/A   Mostly Cloudy
2:51 PM 69.8 °F 62.6 °F 78% 29.87 in 10.0 mi SSW 15.0 mph - N/A   Mostly Cloudy
2:52 PM 69.8 °F 62.6 °F 78% 29.87 in 10.0 mi SSW 15.0 mph - N/A   Mostly Cloudy
2:55 PM 69.6 °F 63.5 °F 81% 29.87 in 10.0 mi SSW 12.7 mph - N/A   Mostly Cloudy
2:56 PM 69.8 °F 62.6 °F 78% 29.87 in 10.0 mi SSW 10.4 mph - N/A   Mostly Cloudy
3:02 PM 69.8 °F 62.6 °F 78% 29.87 in 10.0 mi SSW 15.0 mph - N/A   Mostly Cloudy
3:55 PM 68.7 °F 62.2 °F 80% 29.88 in 10.0 mi SW 13.8 mph - N/A   Clear
4:55 PM 65.3 °F 61.7 °F 88% 29.89 in 10.0 mi South 6.9 mph - N/A   Partly Cloudy
5:55 PM 63.1 °F 61.3 °F 94% 29.90 in 10.0 mi South 5.8 mph - N/A   Partly Cloudy
6:55 PM 61.0 °F 60.1 °F 97% 29.91 in 8.0 mi SSW 4.6 mph - N/A   Clear
7:02 PM 60.8 °F 60.8 °F 100% 29.91 in 2.5 mi SSW 4.6 mph - N/A   Clear
7:07 PM 60.8 °F 60.8 °F 100% 29.91 in 1.8 mi SSW 4.6 mph - N/A   Clear
7:10 PM 60.8 °F 60.8 °F 100% 29.91 in 1.2 mi SSW 3.5 mph - N/A   Clear
7:13 PM 60.8 °F 60.8 °F 100% 29.91 in 1.0 mi Calm Calm - N/A   Clear
7:14 PM 60.8 °F 60.8 °F 100% 29.91 in 0.8 mi Calm Calm - N/A   Clear
7:28 PM 60.8 °F 59.0 °F 94% 29.92 in 0.5 mi South 3.5 mph - N/A Fog Fog
7:30 PM 60.8 °F 59.0 °F 94% 29.92 in 0.5 mi South 4.6 mph - N/A Fog Fog
7:31 PM 60.8 °F 59.0 °F 94% 29.92 in 0.5 mi South 4.6 mph - N/A Fog Fog
7:37 PM 60.8 °F 59.0 °F 94% 29.92 in 0.8 mi South 4.6 mph - N/A   Mist
7:40 PM 60.8 °F 59.0 °F 94% 29.92 in 1.0 mi South 3.5 mph - N/A   Mist
7:41 PM 60.8 °F 60.8 °F 100% 29.92 in 1.0 mi South 3.5 mph - N/A   Mist
7:42 PM 60.8 °F 60.8 °F 100% 29.92 in 1.2 mi Calm Calm - N/A   Mostly Cloudy
7:43 PM 60.8 °F 60.8 °F 100% 29.92 in 1.5 mi Calm Calm - N/A   Mostly Cloudy
7:44 PM 60.8 °F 60.8 °F 100% 29.92 in 2.0 mi Calm Calm - N/A   Mostly Cloudy
7:46 PM 60.8 °F 60.8 °F 100% 29.92 in 3.0 mi Calm Calm - N/A   Mostly Cloudy
7:55 PM 61.3 °F 61.0 °F 99% 29.92 in 3.0 mi Calm Calm - N/A   Overcast
7:58 PM 60.8 °F 60.8 °F 100% 29.92 in 2.5 mi Calm Calm - N/A   Overcast
8:04 PM 60.8 °F 60.8 °F 100% 29.93 in 1.8 mi Calm Calm - N/A   Overcast
8:08 PM 60.8 °F 60.8 °F 100% 29.93 in 1.2 mi SSW 3.5 mph - N/A   Overcast
8:12 PM 62.6 °F 60.8 °F 94% 29.93 in 1.0 mi SSW 3.5 mph - N/A   Overcast
8:17 PM 62.6 °F 60.8 °F 94% 29.93 in 0.8 mi SW 3.5 mph - N/A   Mist
8:30 PM 62.6 °F 62.6 °F 100% 29.92 in 0.5 mi SW 4.6 mph - N/A Fog Fog
8:39 PM 62.6 °F 62.6 °F 100% 29.93 in 0.2 mi SSW 4.6 mph - N/A Fog Fog
8:52 PM 62.6 °F 62.6 °F 100% 29.93 in 0.2 mi SSW 4.6 mph - N/A Fog Fog
8:55 PM 62.1 °F 61.7 °F 99% 29.93 in 0.2 mi SSW 5.8 mph - N/A Fog Fog
8:57 PM 62.6 °F 62.6 °F 100% 29.93 in 0.2 mi SSW 5.8 mph - N/A Fog Fog
9:55 PM 61.5 °F 61.3 °F 99% 29.93 in 0.2 mi SSW 4.6 mph - N/A Fog Fog
10:55 PM 61.3 °F 61.0 °F 99% 29.93 in 0.2 mi South 5.8 mph - N/A Fog Fog
11:40 PM 60.8 °F 60.8 °F 100% 29.93 in 0.2 mi SSW 4.6 mph - N/A Fog Fog
11:55 PM 61.0 °F 60.6 °F 99% 29.93 in 0.2 mi South 3.5 mph - N/A Fog Fog
11:59 PM 60.8 °F 60.8 °F 100% 29.93 in 0.2 mi South 3.5 mph - N/A Fog Fog